| time (UTC) | temp C | wind direction | speed KPH | gust KPH | rain 1hr cm | rain 24hr cm | rain mn cm | humidity % | barometer mb |
| 20260507124550 | 11 | 181 | 0.0 | 4.8 | 0.00 | 0.00 | 0.00 | 81 | 1020.3 |
| 20260507123053 | 11 | 178 | 0.0 | 1.6 | 0.00 | 0.00 | 0.00 | 81 | 1020.3 |
| 20260507121604 | 11 | 178 | 0.0 | 6.4 | 0.00 | 0.00 | 0.00 | 79 | 1020.5 |
| 20260507120057 | 11 | 173 | 1.6 | 8.0 | 0.00 | 0.00 | 0.00 | 80 | 1020.5 |
| 20260507114632 | 11 | 150 | 1.6 | 6.4 | 0.00 | 0.00 | 0.00 | 80 | 1020.6 |
| 20260507113047 | 11 | 182 | 1.6 | 8.0 | 0.00 | 0.00 | 0.00 | 80 | 1020.6 |
| 20260507111548 | 11 | 154 | 3.2 | 8.0 | 0.00 | 0.00 | 0.00 | 81 | 1020.7 |
| 20260507110045 | 11 | 153 | 1.6 | 11.3 | 0.00 | 0.00 | 0.00 | 80 | 1020.6 |
| 20260507104544 | 11 | 192 | 3.2 | 14.5 | 0.00 | 0.00 | 0.00 | 80 | 1020.5 |
| 20260507103044 | 11 | 165 | 1.6 | 12.9 | 0.00 | 0.00 | 0.00 | 80 | 1020.5 |
| 20260507101546 | 11 | 169 | 1.6 | 6.4 | 0.00 | 0.00 | 0.00 | 80 | 1020.6 |
| 20260507100042 | 11 | 135 | 1.6 | 8.0 | 0.00 | 0.00 | 0.00 | 80 | 1020.5 |
| 20260507094540 | 11 | 155 | 4.8 | 12.9 | 0.00 | 0.00 | 0.00 | 80 | 1020.5 |
| 20260507093041 | 11 | 219 | 1.6 | 14.5 | 0.00 | 0.00 | 0.00 | 80 | 1020.6 |
| 20260507091544 | 11 | 157 | 3.2 | 14.5 | 0.00 | 0.00 | 0.00 | 81 | 1020.5 |
| 20260507090038 | 11 | 202 | 6.4 | 14.5 | 0.00 | 0.00 | 0.00 | 80 | 1020.6 |
| 20260507084536 | 11 | 160 | 4.8 | 11.3 | 0.00 | 0.00 | 0.00 | 80 | 1020.6 |
| 20260507083034 | 11 | 183 | 1.6 | 12.9 | 0.00 | 0.00 | 0.00 | 81 | 1020.6 |
| 20260507081531 | 11 | 152 | 3.2 | 12.9 | 0.00 | 0.00 | 0.00 | 81 | 1020.6 |
| 20260507080030 | 11 | 169 | 4.8 | 16.1 | 0.00 | 0.00 | 0.00 | 80 | 1020.5 |
| 20260507074528 | 11 | 186 | 6.4 | 19.3 | 0.00 | 0.00 | 0.00 | 80 | 1020.4 |
| 20260507073027 | 12 | 202 | 3.2 | 16.1 | 0.00 | 0.00 | 0.00 | 80 | 1020.3 |
| 20260507071524 | 12 | 188 | 4.8 | 17.7 | 0.00 | 0.00 | 0.00 | 79 | 1020.3 |
| 20260507070028 | 12 | 175 | 6.4 | 20.9 | 0.00 | 0.00 | 0.00 | 79 | 1020.1 |
| 20260507064524 | 12 | 146 | 3.2 | 22.5 | 0.00 | 0.00 | 0.00 | 81 | 1020.0 |
| 20260507063020 | 12 | 144 | 4.8 | 14.5 | 0.00 | 0.00 | 0.00 | 81 | 1019.9 |
| 20260507061521 | 12 | 130 | 6.4 | 17.7 | 0.00 | 0.00 | 0.00 | 81 | 1019.9 |
| 20260507060019 | 12 | 165 | 4.8 | 12.9 | 0.00 | 0.00 | 0.00 | 81 | 1019.9 |
| 20260507054524 | 12 | 183 | 3.2 | 12.9 | 0.00 | 0.00 | 0.00 | 82 | 1019.8 |
| 20260507053018 | 12 | 179 | 4.8 | 17.7 | 0.00 | 0.00 | 0.00 | 82 | 1019.8 |
| 20260507051518 | 12 | 166 | 6.4 | 19.3 | 0.00 | 0.00 | 0.00 | 82 | 1019.8 |
| 20260507050022 | 12 | 155 | 3.2 | 11.3 | 0.00 | 0.00 | 0.00 | 81 | 1020.0 |
| 20260507044517 | 12 | 184 | 3.2 | 12.9 | 0.00 | 0.00 | 0.00 | 80 | 1020.0 |
| 20260507043022 | 12 | 183 | 6.4 | 14.5 | 0.00 | 0.00 | 0.00 | 80 | 1019.9 |
| 20260507041517 | 12 | 179 | 1.6 | 12.9 | 0.00 | 0.00 | 0.00 | 81 | 1019.8 |
| 20260507040015 | 12 | 157 | 4.8 | 14.5 | 0.00 | 0.00 | 0.00 | 81 | 1019.9 |
| 20260507034515 | 12 | 163 | 3.2 | 12.9 | 0.00 | 0.00 | 0.00 | 81 | 1019.8 |
| 20260507033014 | 12 | 157 | 6.4 | 16.1 | 0.00 | 0.00 | 0.00 | 81 | 1019.8 |
| 20260507031514 | 12 | 197 | 1.6 | 12.9 | 0.00 | 0.00 | 0.00 | 83 | 1019.6 |
| 20260507030013 | 12 | 165 | 4.8 | 14.5 | 0.00 | 0.00 | 0.00 | 83 | 1019.6 |
| 20260507024514 | 12 | 187 | 4.8 | 11.3 | 0.00 | 0.00 | 0.00 | 82 | 1019.7 |
| 20260507023012 | 12 | 157 | 4.8 | 12.9 | 0.00 | 0.00 | 0.00 | 81 | 1019.6 |
| 20260507021512 | 12 | 213 | 4.8 | 12.9 | 0.00 | 0.00 | 0.00 | 81 | 1019.6 |
| 20260507020011 | 12 | 198 | 6.4 | 12.9 | 0.00 | 0.00 | 0.00 | 82 | 1019.6 |
| 20260507014513 | 12 | 178 | 3.2 | 9.7 | 0.00 | 0.00 | 0.00 | 82 | 1019.7 |
| 20260507013020 | 13 | 184 | 4.8 | 12.9 | 0.00 | 0.00 | 0.00 | 79 | 1019.7 |
| 20260507011513 | 13 | 156 | 6.4 | 16.1 | 0.00 | 0.00 | 0.00 | 78 | 1019.6 |
| 20260507010013 | 13 | 165 | 3.2 | 12.9 | 0.00 | 0.00 | 0.00 | 79 | 1019.6 |
| 20260507004509 | 13 | 167 | 4.8 | 14.5 | 0.00 | 0.00 | 0.00 | 79 | 1019.8 |
| 20260507003008 | 13 | 165 | 4.8 | 16.1 | 0.00 | 0.00 | 0.00 | 79 | 1019.8 |
| 20260507001510 | 13 | 186 | 3.2 | 16.1 | 0.00 | 0.00 | 0.00 | 80 | 1019.7 |
| 20260507000007 | 13 | 219 | 3.2 | 14.5 | 0.00 | 0.00 | 0.00 | 79 | 1019.6 |
| 20260506234506 | 13 | 180 | 1.6 | 11.3 | 0.00 | 0.00 | 0.00 | 80 | 1019.6 |
| 20260506233008 | 13 | 173 | 4.8 | 14.5 | 0.00 | 0.00 | 0.00 | 79 | 1019.6 |
| 20260506231506 | 13 | 151 | 3.2 | 12.9 | 0.00 | 0.00 | 0.00 | 78 | 1019.7 |
| 20260506230008 | 13 | 173 | 4.8 | 14.5 | 0.00 | 0.00 | 0.00 | 79 | 1019.7 |
| 20260506224505 | 13 | 179 | 3.2 | 16.1 | 0.00 | 0.00 | 0.00 | 78 | 1019.9 |
| 20260506223004 | 13 | 172 | 8.0 | 19.3 | 0.00 | 0.00 | 0.00 | 76 | 1020.0 |
| 20260506221502 | 13 | 184 | 4.8 | 11.3 | 0.00 | 0.00 | 0.00 | 77 | 1019.8 |
| 20260506220100 | 13 | 144 | 6.4 | 19.3 | 0.00 | 0.00 | 0.00 | 79 | 1019.9 |
| 20260506214557 | 12 | 181 | 4.8 | 14.5 | 0.00 | 0.00 | 0.00 | 81 | 1020.0 |
| 20260506213112 | 12 | 155 | 6.4 | 17.7 | 0.00 | 0.00 | 0.00 | 80 | 1019.9 |
| 20260506211556 | 12 | 166 | 4.8 | 11.3 | 0.00 | 0.00 | 0.00 | 81 | 1020.1 |
| 20260506210054 | 12 | 191 | 4.8 | 14.5 | 0.00 | 0.00 | 0.00 | 82 | 1020.1 |
| 20260506204552 | 12 | 229 | 6.4 | 12.9 | 0.00 | 0.00 | 0.00 | 81 | 1019.9 |
| 20260506203052 | 12 | 171 | 4.8 | 11.3 | 0.00 | 0.00 | 0.00 | 83 | 1019.8 |
| 20260506201547 | 12 | 192 | 3.2 | 9.7 | 0.00 | 0.00 | 0.00 | 85 | 1020.0 |
| 20260506200047 | 11 | 161 | 3.2 | 9.7 | 0.00 | 0.00 | 0.00 | 84 | 1019.9 |
| 20260506194548 | 12 | 180 | 1.6 | 11.3 | 0.00 | 0.00 | 0.00 | 85 | 1020.0 |
| 20260506193044 | 12 | 127 | 3.2 | 16.1 | 0.00 | 0.00 | 0.00 | 84 | 1019.9 |
| 20260506191543 | 12 | 173 | 6.4 | 11.3 | 0.00 | 0.00 | 0.00 | 84 | 1019.7 |
| 20260506190040 | 12 | 146 | 3.2 | 12.9 | 0.00 | 0.00 | 0.00 | 85 | 1019.6 |
| 20260506184549 | 11 | 176 | 3.2 | 11.3 | 0.00 | 0.00 | 0.00 | 87 | 1019.6 |
| 20260506183052 | 11 | 182 | 3.2 | 14.5 | 0.00 | 0.00 | 0.00 | 87 | 1019.7 |
| 20260506181607 | 11 | 196 | 3.2 | 14.5 | 0.00 | 0.00 | 0.00 | 86 | 1019.4 |
| 20260506180037 | 11 | 188 | 3.2 | 8.0 | 0.00 | 0.00 | 0.00 | 87 | 1019.5 |
| 20260506174536 | 11 | 194 | 6.4 | 14.5 | 0.00 | 0.00 | 0.00 | 87 | 1019.5 |
| 20260506173053 | 11 | 175 | 4.8 | 9.7 | 0.00 | 0.00 | 0.00 | 87 | 1019.3 |
| 20260506171535 | 11 | 193 | 4.8 | 9.7 | 0.00 | 0.00 | 0.00 | 87 | 1019.3 |
| 20260506170038 | 11 | 167 | 3.2 | 14.5 | 0.00 | 0.00 | 0.00 | 87 | 1019.2 |
| 20260506164537 | 11 | 170 | 1.6 | 11.3 | 0.00 | 0.00 | 0.00 | 87 | 1019.3 |
| 20260506163037 | 11 | 196 | 4.8 | 12.9 | 0.00 | 0.00 | 0.00 | 87 | 1019.3 |
| 20260506161530 | 11 | 172 | 4.8 | 12.9 | 0.00 | 0.00 | 0.00 | 87 | 1019.2 |
| 20260506160026 | 11 | 225 | 3.2 | 16.1 | 0.00 | 0.00 | 0.00 | 87 | 1019.4 |
| 20260506154524 | 11 | 202 | 6.4 | 16.1 | 0.00 | 0.00 | 0.00 | 86 | 1019.2 |
| 20260506153023 | 11 | 211 | 6.4 | 12.9 | 0.00 | 0.00 | 0.00 | 87 | 1019.2 |
| 20260506151521 | 11 | 208 | 4.8 | 16.1 | 0.00 | 0.00 | 0.00 | 88 | 1018.9 |
| 20260506150017 | 11 | 197 | 4.8 | 16.1 | 0.00 | 0.00 | 0.00 | 88 | 1018.6 |
| 20260506144520 | 11 | 196 | 3.2 | 17.7 | 0.00 | 0.00 | 0.00 | 87 | 1018.6 |
| 20260506143015 | 11 | 168 | 6.4 | 16.1 | 0.00 | 0.00 | 0.00 | 88 | 1018.5 |
| 20260506141513 | 11 | 183 | 6.4 | 14.5 | 0.00 | 0.00 | 0.00 | 87 | 1018.5 |
| 20260506140015 | 11 | 167 | 6.4 | 16.1 | 0.00 | 0.00 | 0.00 | 87 | 1018.6 |
| 20260506134507 | -17 | 0.0 | 0.0 | 0.00 | 0.00 | 0.00 | 1018.2 | ||
| 20260506133003 | -17 | 0.0 | 0.0 | 0.00 | 0.00 | 0.00 | 1017.8 | ||
| 20260506131600 | 11 | 182 | 4.8 | 19.3 | 0.00 | 0.00 | 0.00 | 87 | 1017.5 |
| 20260506130104 | 11 | 150 | 4.8 | 19.3 | 0.00 | 0.00 | 0.00 | 87 | 1017.7 |